ARIANE 42P R/B, 22079

Orbit data source: Space-Track

ARIANE 42P R/B, 22079 is space debris in LEO originally from a launch on Mon, 10 Aug 1992 UTC launched from the French Guiana (FRGUI). Debris objects in space refer to the collection of defunct objects orbiting the Earth. Examples of debris include non-operational satellites, rocket bodies, and fragments generated from explosions, collisions, or faulty payload assembly.

Loading next visibility...
Identifier
22079, 1992-052D
Orbit
LEO
Country
Flag of FRFR
Related business
Manufacturer
Ae/LesM
Mission
Spacecraft
Bus & Motor
ARIANE H10, Unknown motor
Mass
1,875 kg wet, 1,820 kg dry
Launch date (UTC)
1992-08-10 (33 years ago)
Launch vehicle
Unknown
Launch site
French Guiana (FRGUI)
Object type
Payload
Rocket body
Debris
Shape & HBR
Cyl, 6.0 m
Radar Cross Section
27.363 m², Large (>1 m²)

Expand to show TLE details & history
Last TLE update: 8 hours ago

TLE from 8 hours ago
0 ARIANE 42P R/B
1 22079U 92052D   26037.00212314  .00000040  00000-0  44817-3 0  9990
2 22079  66.0635 216.7960 0068800 357.5367 167.4911 12.77964718562629
Epoch: 2026-02-06T00:03Z
TLE epoch observation values (Epoch: 2026-02-06T00:03:03.439Z)
Latitude
13.4876°
Longitude
-106.19614°
Altitude
1,402.767 km
Speed
7.136 km/s
True Right ascension
02h 02m 51s
True Declination
13° 24' 59"
Sunlit
Object was in daylight at epoch
Visualization orbit readout
Latitude
Unknown
Longitude
Unknown
Altitude
Unknown
Speed
Unknown
Apparent Right ascension
Unknown
Apparent Declination
Unknown
Sunlit
N/A
Visualization observer readout
Local Sidereal Time
10:29:34
Azimuth
Unknown
Elevation
Unknown
Doppler factor
Unknown
Orbital elements
Apogee altitude
1,401.384 km
Perigee altitude
1,295.069 km
Semi-major axis
7,726.364 km
Eccentricity
0.00688
Inclination
66.0635°
RAAN
216.796°
Arg. of periapsis
357.5367°
True anomaly
167.66044°
Mean anomaly
167.4911°
Eccentric anomaly
167.57591°
Mean motion
3.19581 °/min
Orbital period
112.65 mins
BSTAR
0.00044817
Loading maneuver chart data...
Computing Atmospheric mass density...
Loading historical data...
Loading historical data...
Loading historical data...
Loading historical data...
Loading historical data...
Loading historical data...
Loading historical data...

Documentation

Showing up to 5 results
|